Time,TemperatureF,DewpointF,PressureIn,WindDirection,WindDirectionDegrees,WindSpeedMPH,WindSpeedGustMPH,Humidity,HourlyPrecipIn,Conditions,Clouds,dailyrainin,SoftwareType,DateUTC
2013-04-18 00:11:00,37.0,32.0,30.31,SSE,147,2.0,2.0,81,0.00,,,0.00,weatherlink.com 1.10,2013-04-18 04:11:00,
2013-04-18 00:26:00,36.6,31.0,30.32,SE,136,0.0,1.0,80,0.00,,,0.00,weatherlink.com 1.10,2013-04-18 04:26:00,
2013-04-18 00:41:00,37.8,31.0,30.33,ESE,113,1.0,2.0,77,0.00,,,0.00,weatherlink.com 1.10,2013-04-18 04:41:00,
2013-04-18 00:56:00,38.7,32.0,30.34,ESE,116,0.0,0.0,77,0.00,,,0.00,weatherlink.com 1.10,2013-04-18 04:56:00,
2013-04-18 01:11:00,38.2,32.0,30.34,SE,139,0.0,1.0,79,0.00,,,0.00,weatherlink.com 1.10,2013-04-18 05:11:00,
2013-04-18 01:26:00,37.1,31.0,30.34,SE,138,0.0,1.0,80,0.00,,,0.00,weatherlink.com 1.10,2013-04-18 05:26:00,
2013-04-18 01:41:00,36.4,31.0,30.34,SE,139,0.0,2.0,80,0.00,,,0.00,weatherlink.com 1.10,2013-04-18 05:41:00,
2013-04-18 01:56:00,38.1,31.0,30.34,SSE,148,0.0,3.0,74,0.00,,,0.00,weatherlink.com 1.10,2013-04-18 05:56:00,
2013-04-18 02:11:00,38.4,30.0,30.34,ESE,120,0.0,2.0,72,0.00,,,0.00,weatherlink.com 1.10,2013-04-18 06:11:00,
2013-04-18 02:26:00,38.4,27.0,30.35,ESE,120,0.0,0.0,65,0.00,,,0.00,weatherlink.com 1.10,2013-04-18 06:26:00,
2013-04-18 02:41:00,37.8,29.0,30.35,SE,132,0.0,1.0,71,0.00,,,0.00,weatherlink.com 1.10,2013-04-18 06:41:00,
2013-04-18 02:56:00,36.3,29.0,30.36,SE,134,0.0,2.0,75,0.00,,,0.00,weatherlink.com 1.10,2013-04-18 06:56:00,
2013-04-18 03:11:00,35.3,29.0,30.38,SE,134,0.0,1.0,77,0.00,,,0.00,weatherlink.com 1.10,2013-04-18 07:11:00,
2013-04-18 03:27:00,34.3,29.0,30.37,SE,140,1.0,2.0,80,0.00,,,0.00,weatherlink.com 1.10,2013-04-18 07:27:00,
2013-04-18 03:42:00,33.8,30.0,30.38,SE,140,1.0,1.0,84,0.00,,,0.00,weatherlink.com 1.10,2013-04-18 07:42:00,
2013-04-18 03:57:00,33.2,29.0,30.39,SE,141,0.0,1.0,85,0.00,,,0.00,weatherlink.com 1.10,2013-04-18 07:57:00,
2013-04-18 04:12:00,32.6,29.0,30.40,SE,142,1.0,1.0,86,0.00,,,0.00,weatherlink.com 1.10,2013-04-18 08:12:00,
2013-04-18 04:27:00,32.0,28.0,30.41,SE,142,0.0,1.0,85,0.00,,,0.00,weatherlink.com 1.10,2013-04-18 08:27:00,
2013-04-18 04:42:00,31.5,28.0,30.43,SE,141,0.0,0.0,86,0.00,,,0.00,weatherlink.com 1.10,2013-04-18 08:42:00,
2013-04-18 04:57:00,31.9,29.0,30.43,SE,141,0.0,1.0,87,0.00,,,0.00,weatherlink.com 1.10,2013-04-18 08:57:00,
2013-04-18 05:12:00,31.8,29.0,30.45,SE,141,0.0,0.0,88,0.00,,,0.00,weatherlink.com 1.10,2013-04-18 09:12:00,
2013-04-18 05:27:00,31.6,29.0,30.45,SE,140,0.0,0.0,89,0.00,,,0.00,weatherlink.com 1.10,2013-04-18 09:27:00,
2013-04-18 05:42:00,31.4,29.0,30.45,SE,139,0.0,1.0,89,0.00,,,0.00,weatherlink.com 1.10,2013-04-18 09:42:00,
2013-04-18 05:57:00,31.2,28.0,30.44,SE,139,0.0,1.0,89,0.00,,,0.00,weatherlink.com 1.10,2013-04-18 09:57:00,
2013-04-18 06:12:00,31.1,29.0,30.44,SE,138,0.0,0.0,90,0.00,,,0.00,weatherlink.com 1.10,2013-04-18 10:12:00,
2013-04-18 06:27:00,32.3,30.0,30.43,SE,138,0.0,0.0,90,0.00,,,0.00,weatherlink.com 1.10,2013-04-18 10:27:00,
2013-04-18 06:42:00,33.5,31.0,30.43,SE,139,0.0,1.0,89,0.00,,,0.00,weatherlink.com 1.10,2013-04-18 10:42:00,
2013-04-18 06:57:00,34.7,31.0,30.43,SE,138,1.0,1.0,87,0.00,,,0.00,weatherlink.com 1.10,2013-04-18 10:57:00,
2013-04-18 07:12:00,35.2,32.0,30.44,SE,140,0.0,1.0,87,0.00,,,0.00,weatherlink.com 1.10,2013-04-18 11:12:00,
2013-04-18 07:27:00,36.1,33.0,30.45,SE,140,0.0,0.0,87,0.00,,,0.00,weatherlink.com 1.10,2013-04-18 11:27:00,
2013-04-18 07:42:00,38.3,34.0,30.46,SE,140,0.0,1.0,85,0.00,,,0.00,weatherlink.com 1.10,2013-04-18 11:42:00,
2013-04-18 07:57:00,41.1,33.0,30.46,SSE,150,1.0,1.0,74,0.00,,,0.00,weatherlink.com 1.10,2013-04-18 11:57:00,
2013-04-18 08:12:00,43.3,28.0,30.45,SSE,160,2.0,4.0,56,0.00,,,0.00,weatherlink.com 1.10,2013-04-18 12:12:00,
2013-04-18 08:27:00,44.1,26.0,30.46,SSE,165,1.0,5.0,49,0.00,,,0.00,weatherlink.com 1.10,2013-04-18 12:27:00,
2013-04-18 08:42:00,44.9,25.0,30.45,South,181,2.0,7.0,45,0.00,,,0.00,weatherlink.com 1.10,2013-04-18 12:42:00,
2013-04-18 08:57:00,45.3,24.0,30.46,West,280,3.0,9.0,43,0.00,,,0.00,weatherlink.com 1.10,2013-04-18 12:57:00,
2013-04-18 09:12:00,45.0,22.0,30.46,South,181,2.0,11.0,41,0.00,,,0.00,weatherlink.com 1.10,2013-04-18 13:12:00,
2013-04-18 09:27:00,45.1,23.0,30.45,SSE,156,7.0,8.0,42,0.00,,,0.00,weatherlink.com 1.10,2013-04-18 13:27:00,
2013-04-18 09:42:00,46.0,24.0,30.44,SSE,163,5.0,11.0,43,0.00,,,0.00,weatherlink.com 1.10,2013-04-18 13:42:00,
2013-04-18 09:58:00,46.1,23.0,30.44,SW,221,9.0,11.0,40,0.00,,,0.00,weatherlink.com 1.10,2013-04-18 13:58:00,
2013-04-18 10:13:00,45.8,24.0,30.43,SSE,167,4.0,13.0,43,0.00,,,0.00,weatherlink.com 1.10,2013-04-18 14:13:00,
2013-04-18 10:28:00,46.2,25.0,30.44,ESE,123,6.0,12.0,44,0.00,,,0.00,weatherlink.com 1.10,2013-04-18 14:28:00,
2013-04-18 10:43:00,46.4,22.0,30.44,SE,139,14.0,14.0,39,0.00,,,0.00,weatherlink.com 1.10,2013-04-18 14:43:00,
2013-04-18 10:58:00,46.1,23.0,30.44,East,95,7.0,13.0,40,0.00,,,0.00,weatherlink.com 1.10,2013-04-18 14:58:00,
2013-04-18 11:13:00,45.9,23.0,30.44,SE,143,7.0,11.0,40,0.00,,,0.00,weatherlink.com 1.10,2013-04-18 15:13:00,
2013-04-18 11:28:00,45.2,25.0,30.44,SE,131,9.0,13.0,46,0.00,,,0.00,weatherlink.com 1.10,2013-04-18 15:28:00,
2013-04-18 11:43:00,45.4,24.0,30.44,SSE,160,3.0,12.0,44,0.00,,,0.00,weatherlink.com 1.10,2013-04-18 15:43:00,
2013-04-18 11:58:00,45.5,27.0,30.44,SE,144,6.0,13.0,49,0.00,,,0.00,weatherlink.com 1.10,2013-04-18 15:58:00,
2013-04-18 12:13:00,45.2,26.0,30.44,SSW,197,5.0,12.0,47,0.00,,,0.00,weatherlink.com 1.10,2013-04-18 16:13:00,
2013-04-18 12:28:00,44.7,27.0,30.43,East,86,8.0,14.0,51,0.00,,,0.00,weatherlink.com 1.10,2013-04-18 16:28:00,
2013-04-18 12:43:00,45.2,29.0,30.43,SSE,149,10.0,12.0,54,0.00,,,0.00,weatherlink.com 1.10,2013-04-18 16:43:00,
2013-04-18 12:58:00,44.9,28.0,30.43,SE,143,6.0,13.0,52,0.00,,,0.00,weatherlink.com 1.10,2013-04-18 16:58:00,
2013-04-18 13:13:00,44.5,29.0,30.42,SSE,165,7.0,13.0,56,0.00,,,0.00,weatherlink.com 1.10,2013-04-18 17:13:00,
2013-04-18 13:28:00,43.9,31.0,30.41,East,94,3.0,11.0,61,0.00,,,0.00,weatherlink.com 1.10,2013-04-18 17:28:00,
2013-04-18 13:43:00,43.5,30.0,30.40,SSE,156,8.0,10.0,60,0.00,,,0.00,weatherlink.com 1.10,2013-04-18 17:43:00,
2013-04-18 13:58:00,43.7,31.0,30.40,SSW,211,4.0,10.0,61,0.00,,,0.00,weatherlink.com 1.10,2013-04-18 17:58:00,
2013-04-18 14:13:00,44.2,31.0,30.40,West,260,6.0,9.0,61,0.00,,,0.00,weatherlink.com 1.10,2013-04-18 18:13:00,
2013-04-18 14:28:00,44.2,32.0,30.38,South,186,2.0,10.0,63,0.00,,,0.00,weatherlink.com 1.10,2013-04-18 18:28:00,
2013-04-18 14:43:00,44.2,32.0,30.39,SSE,152,5.0,9.0,63,0.00,,,0.00,weatherlink.com 1.10,2013-04-18 18:43:00,
2013-04-18 14:58:00,44.6,32.0,30.37,West,274,6.0,11.0,62,0.00,,,0.00,weatherlink.com 1.10,2013-04-18 18:58:00,
2013-04-18 15:13:00,44.5,33.0,30.37,SSE,158,4.0,10.0,64,0.00,,,0.00,weatherlink.com 1.10,2013-04-18 19:13:00,
2013-04-18 15:28:00,43.8,33.0,30.36,SE,145,6.0,13.0,67,0.00,,,0.00,weatherlink.com 1.10,2013-04-18 19:28:00,
2013-04-18 15:43:00,43.7,34.0,30.36,SE,127,5.0,8.0,70,0.00,,,0.00,weatherlink.com 1.10,2013-04-18 19:43:00,
2013-04-18 15:58:00,43.2,35.0,30.34,SSE,155,9.0,10.0,72,0.00,,,0.00,weatherlink.com 1.10,2013-04-18 19:58:00,
2013-04-18 16:13:00,43.1,35.0,30.33,SSE,160,7.0,10.0,73,0.00,,,0.00,weatherlink.com 1.10,2013-04-18 20:13:00,
2013-04-18 16:28:00,43.0,36.0,30.32,SE,125,6.0,10.0,75,0.00,,,0.00,weatherlink.com 1.10,2013-04-18 20:28:00,
2013-04-18 16:43:00,42.9,36.0,30.32,SE,137,6.0,12.0,76,0.00,,,0.00,weatherlink.com 1.10,2013-04-18 20:43:00,
2013-04-18 16:58:00,43.1,36.0,30.32,South,186,7.0,10.0,76,0.00,,,0.00,weatherlink.com 1.10,2013-04-18 20:58:00,
2013-04-18 17:13:00,43.3,36.0,30.31,SSW,200,4.0,9.0,76,0.00,,,0.00,weatherlink.com 1.10,2013-04-18 21:13:00,
2013-04-18 17:28:00,43.3,36.0,30.31,South,185,6.0,12.0,76,0.00,,,0.00,weatherlink.com 1.10,2013-04-18 21:28:00,
2013-04-18 17:43:00,43.3,37.0,30.30,SSE,167,5.0,13.0,77,0.00,,,0.00,weatherlink.com 1.10,2013-04-18 21:43:00,
2013-04-18 17:58:00,43.3,37.0,30.28,SSE,156,8.0,12.0,77,0.00,,,0.00,weatherlink.com 1.10,2013-04-18 21:58:00,
2013-04-18 18:13:00,43.4,37.0,30.27,SE,145,7.0,12.0,77,0.00,,,0.00,weatherlink.com 1.10,2013-04-18 22:13:00,
2013-04-18 18:28:00,43.3,37.0,30.26,SSW,210,6.0,14.0,79,0.00,,,0.00,weatherlink.com 1.10,2013-04-18 22:28:00,
2013-04-18 18:43:00,43.5,37.0,30.26,SE,131,7.0,9.0,78,0.00,,,0.00,weatherlink.com 1.10,2013-04-18 22:43:00,
2013-04-18 18:58:00,43.6,38.0,30.26,SE,145,5.0,8.0,80,0.00,,,0.00,weatherlink.com 1.10,2013-04-18 22:58:00,
2013-04-18 19:13:00,43.7,38.0,30.25,South,183,3.0,8.0,80,0.00,,,0.00,weatherlink.com 1.10,2013-04-18 23:13:00,
2013-04-18 19:28:00,44.2,37.0,30.24,SE,146,10.0,15.0,77,0.00,,,0.00,weatherlink.com 1.10,2013-04-18 23:28:00,
2013-04-18 19:43:00,44.6,37.0,30.24,SE,131,9.0,16.0,76,0.00,,,0.00,weatherlink.com 1.10,2013-04-18 23:43:00,
2013-04-18 19:58:00,44.9,37.0,30.24,SE,145,9.0,16.0,75,0.00,,,0.00,weatherlink.com 1.10,2013-04-18 23:58:00,
2013-04-18 20:13:00,45.4,37.0,30.23,SSE,158,12.0,19.0,73,0.00,,,0.00,weatherlink.com 1.10,2013-04-19 00:13:00,
2013-04-18 20:28:00,45.7,37.0,30.23,SSE,149,12.0,24.0,73,0.00,,,0.00,weatherlink.com 1.10,2013-04-19 00:28:00,
2013-04-18 20:43:00,45.9,38.0,30.23,ESE,104,16.0,20.0,74,0.00,,,0.00,weatherlink.com 1.10,2013-04-19 00:43:00,
2013-04-18 20:58:00,45.7,39.0,30.23,SE,125,14.0,18.0,78,0.00,,,0.00,weatherlink.com 1.10,2013-04-19 00:58:00,
2013-04-18 21:13:00,45.6,39.0,30.23,ESE,123,11.0,16.0,79,0.00,,,0.00,weatherlink.com 1.10,2013-04-19 01:13:00,
2013-04-18 21:28:00,45.6,40.0,30.23,SE,143,10.0,15.0,81,0.00,,,0.00,weatherlink.com 1.10,2013-04-19 01:28:00,
2013-04-18 21:43:00,45.4,40.0,30.22,SE,129,14.0,18.0,81,0.00,,,0.00,weatherlink.com 1.10,2013-04-19 01:43:00,
2013-04-18 21:59:00,45.2,40.0,30.22,SE,138,15.0,18.0,83,0.00,,,0.00,weatherlink.com 1.10,2013-04-19 01:59:00,
2013-04-18 22:14:00,45.2,40.0,30.21,SE,136,13.0,19.0,83,0.00,,,0.00,weatherlink.com 1.10,2013-04-19 02:14:00,
2013-04-18 22:29:00,45.1,40.0,30.19,SE,138,15.0,21.0,83,0.00,,,0.00,weatherlink.com 1.10,2013-04-19 02:29:00,
2013-04-18 22:44:00,45.1,41.0,30.19,SE,132,13.0,19.0,85,0.00,,,0.00,weatherlink.com 1.10,2013-04-19 02:44:00,
2013-04-18 22:59:00,45.5,41.0,30.19,SE,145,12.0,18.0,84,0.00,,,0.00,weatherlink.com 1.10,2013-04-19 02:59:00,
2013-04-18 23:14:00,45.7,41.0,30.18,ESE,119,12.0,16.0,82,0.00,,,0.00,weatherlink.com 1.10,2013-04-19 03:14:00,
2013-04-18 23:29:00,45.6,41.0,30.18,SE,131,15.0,17.0,84,0.00,,,0.00,weatherlink.com 1.10,2013-04-19 03:29:00,
2013-04-18 23:44:00,45.3,41.0,30.18,SE,139,12.0,17.0,86,0.00,,,0.00,weatherlink.com 1.10,2013-04-19 03:44:00,
2013-04-18 23:59:00,45.3,41.0,30.17,SE,132,13.0,17.0,85,0.00,,,0.00,weatherlink.com 1.10,2013-04-19 03:59:00,